Tracking 20753 objects as of 7-Jun-2020
HD Live streaming from Space Station
objects crossing your sky now
Track the most recent launched group of Starlink satellites

THORAD AGENA D DEB

Track THORAD AGENA D DEB now!
10-day predictions


NORAD ID: 4178
Int'l Code: 1969-082AW
Perigee: 720.1 km
Apogee: 830.0 km
Inclination: 69.8 °
Period: 100.2 minutes
Semi major axis: 7146 km
RCS: 0.1101 m2 (medium)
Launch date: September 30, 1969
Source: United States (US)
Launch site: AIR FORCE WESTERN TEST RANGE (AFWTR)

Note: This is SATELLITE DEBRIS
aabbcc
Your satellite tracking list
Your tracking list is empty




NASA's NSSDC Master Catalog

Two Line Element Set (TLE):
1  4178U 69082AW  20158.89027721 +.00000056 +00000-0 +37826-4 0  9998
2  4178 069.8466 089.6834 0076894 070.0723 290.8666 14.37153945622135
Source of the keplerian elements: AFSPC